Temperature
14 13 13 13 13 13 12 12 12 12 12 11 11 11 11 11 11 11 10 10 10 10 10 10 10 10 11 11 11 11 10 11 11 11 10 10 10 10 11 11 11 11 11
13 13 13 13 13 12 12 12 12 11 11 11 11 10 10 10 10 10 10 10 10 10 10 10 10 10 10 10 10 10 10 10 10 10 10 10 10 10 10 10 10 10 11
13 13 13 12 12 12 12 12 11 11 11 11 10 10 10 10 10 10 10 10 10 10 10 10 10 10 10 10 10 10 10 10 10 10 10 10 10 10 10 10 10 10 10
13 13 12 12 12 12 11 11 11 11 11 10 10 10 10 10 10 9 9 9 9 9 9 9 9 9 9 9 9 9 10 10 10 10 10 10 10 10 10 10 10 10 10
13 12 12 12 11 11 11 11 11 10 10 10 10 10 10 10 9 9 9 9 9 9 9 9 9 9 9 9 9 9 9 9 9 9 9 9 9 9 9 9 9 9 10
12 12 12 11 11 11 11 10 10 10 10 10 10 10 10 10 9 10 9 9 9 9 9 9 9 9 9 9 9 9 9 9 9 9 9 9 9 9 9 9 9 9 9
12 12 11 11 11 11 11 10 10 10 10 9 9 9 9 9 9 9 9 9 9 8 8 8 8 9 9 8 9 9 9 9 9 9 9 9 9 9 9 9 9 8 9
11 11 11 11 11 11 10 10 10 10 9 9 9 9 9 9 9 9 9 9 8 8 8 8 8 8 8 8 8 8 8 8 8 8 8 8 8 8 8 8 8 8 8
11 11 11 11 11 10 10 10 10 9 9 9 9 9 9 9 9 9 9 8 8 8 8 8 8 8 8 8 8 8 8 8 8 8 8 8 8 8 8 8 8 8 8
11 11 11 10 10 10 10 10 9 9 9 9 9 9 8 8 9 9 8 8 8 8 8 8 8 8 8 8 7 7 7 8 8 8 8 8 8 8 8 8 8 7 7
10 10 10 10 10 10 9 9 9 9 9 8 8 8 8 8 8 8 8 8 8 8 8 8 8 8 8 8 7 7 7 7 7 7 7 7 7 7 7 7 7 7 7
10 10 10 10 9 9 9 9 8 8 8 8 8 8 8 8 8 7 8 8 7 7 8 8 8 8 8 8 7 7 7 7 7 7 7 7 7 7 7 7 7 7 7
9 9 9 9 9 9 8 8 8 8 8 8 7 7 7 7 7 7 7 7 7 7 7 7 7 7 7 7 7 7 7 7 6 6 6 6 6 6 6 6 6 7 7
9 9 9 9 8 8 8 8 7 7 7 7 7 7 7 7 7 7 7 7 7 7 7 7 7 7 7 6 6 7 6 6 6 6 6 6 6 6 6 6 6 6 6
9 8 8 8 8 8 8 8 7 7 7 7 7 6 6 6 6 6 6 6 6 6 6 6 6 6 6 6 6 6 6 6 6 6 6 6 6 5 6 6 6 6 6
8 8 8 8 7 7 7 7 7 7 7 7 7 6 6 6 6 6 6 6 6 6 6 5 5 5 5 5 5 5 5 5 5 5 5 5 5 5 5 5 5 5 5
8 8 8 7 7 7 7 6 6 6 6 6 6 6 6 6 6 5 5 5 5 5 5 5 5 5 4 4 4 4 5 5 5 5 5 5 4 5 5 5 5 4 5
7 8 7 7 7 6 6 6 6 6 5 5 5 5 5 5 5 5 5 5 4 4 4 4 4 4 4 4 4 4 4 4 4 4 4 4 4 4 4 4 4 4 4
7 7 7 7 6 6 6 5 5 5 5 5 5 5 5 5 5 5 4 4 4 4 4 4 3 3 3 3 3 3 4 4 4 4 4 4 4 4 4 4 4 4 4
7 7 7 6 6 5 5 5 5 5 5 4 4 4 4 4 4 4 4 4 3 3 3 3 3 3 3 3 3 3 3 3 3 3 3 3 3 3 3 3 3 3 3
6 6 6 6 5 5 5 5 5 4 4 4 4 4 4 3 3 3 3 3 3 3 3 3 3 3 3 3 3 3 3 3 3 3 3 3 3 3 3 3 3 3 3
6 5 5 5 5 5 5 4 4 4 4 4 3 3 3 3 3 3 3 3 3 3 3 2 2 2 2 2 2 2 2 2 2 2 2 2 2 2 2 2 2 2 2
5 5 5 4 4 4 4 4 4 3 3 3 3 3 3 3 3 3 3 3 2 2 2 2 2 2 2 2 2 2 2 2 2 2 2 2 2 2 2 2 2 2 2
5 5 4 4 4 4 3 3 3 3 3 3 3 3 3 2 2 2 2 2 2 2 2 2 2 2 2 2 1 1 1 1 1 2 2 1 1 1 1 1 1 1 1
4 4 4 4 3 3 3 3 3 2 2 2 2 2 2 2 2 2 2 1 1 1 1 1 1 1 1 1 1 1 1 1 1 1 1 1 1 1 1 1 1 1 1
4 3 3 3 3 3 2 2 2 2 2 2 2 2 1 1 1 1 1 1 1 1 1 1 1 1 1 1 1 1 1 1 1 0 0 0 0 0 0 0 0 0 0
Wind_Speed
8 8 8 7 7 6 6 5 5 5 4 4 4 3 3 3 3 3 3 3 4 3 3 3 3 3 3 3 3 3 4 4 5 4 3 2 3 3 2 3 3 3 2
8 8 8 7 7 7 7 6 6 5 5 5 4 4 4 4 4 4 4 4 4 4 4 3 4 3 4 3 3 4 4 4 5 5 4 3 4 3 3 4 4 3 3
6 7 7 7 8 7 7 6 6 6 6 6 5 5 5 5 5 5 5 5 5 5 5 5 5 4 4 4 4 4 4 4 4 5 4 3 3 3 4 4 4 3 4
6 6 7 7 7 7 7 7 7 6 6 6 6 6 6 6 5 6 6 6 5 5 5 5 5 5 5 5 4 5 5 5 5 4 4 4 3 3 4 4 3 3 3
5 6 6 6 6 6 7 7 7 6 7 6 7 7 6 6 6 6 6 6 6 6 6 5 5 5 5 5 5 5 5 4 4 4 4 4 4 3 4 3 4 3 3
5 5 5 5 5 6 6 6 6 7 7 7 7 7 7 6 5 5 6 6 7 7 6 6 6 6 6 5 5 6 5 5 5 5 5 6 6 5 3 4 4 3 4
5 5 4 4 5 5 6 6 6 6 7 7 7 7 8 7 6 6 7 7 7 7 7 6 5 5 5 5 6 7 7 7 7 7 7 7 6 5 4 5 5 6 5
5 4 4 4 4 4 5 5 6 5 6 6 7 7 7 7 5 6 7 9 8 8 7 7 7 6 5 5 6 6 6 6 7 7 7 7 6 5 5 6 6 6 5
5 4 4 4 4 4 4 5 5 5 5 6 6 7 7 7 4 5 6 7 7 8 7 7 7 6 2 4 6 6 7 5 5 6 7 6 5 4 4 4 4 4 5
5 5 4 4 4 4 4 4 4 4 4 4 4 5 6 6 3 4 6 6 7 7 6 6 4 5 3 4 6 6 7 6 5 5 5 6 6 5 6 6 5 5 5
4 4 4 4 4 4 3 3 3 3 3 4 4 4 5 4 3 3 4 5 6 6 5 5 4 3 4 4 6 6 6 6 5 5 5 5 5 4 5 6 6 6 6
4 4 4 4 3 3 3 3 3 3 3 3 3 3 3 3 2 3 3 4 6 6 5 4 3 2 3 4 4 4 4 5 4 4 4 4 4 4 4 5 5 6 6
4 4 4 4 3 3 3 3 3 3 3 2 2 3 2 2 1 2 3 4 5 4 3 2 1 1 2 3 3 3 4 4 4 4 4 4 4 4 3 3 4 5 5
4 4 4 3 3 3 2 2 3 3 3 3 2 2 2 2 1 1 2 2 2 3 2 0 1 1 2 2 1 2 3 3 3 4 4 3 2 2 3 3 3 3 3
3 3 3 3 3 3 2 1 2 2 2 2 3 2 2 2 1 2 2 1 1 2 1 1 1 1 1 1 1 2 2 2 2 3 2 2 2 2 2 2 2 3 3
3 3 3 3 3 3 3 2 2 0 1 0 1 1 1 1 1 1 1 1 2 1 0 0 1 1 1 2 2 2 2 2 2 2 2 2 2 2 2 2 2 2 3
3 3 3 3 3 3 3 2 2 2 2 1 0 0 1 0 0 1 1 2 2 2 1 1 1 1 1 2 2 2 2 2 2 2 2 2 1 1 1 1 2 2 2
2 2 3 3 3 3 3 2 2 2 1 1 2 1 1 1 1 1 2 2 1 1 1 1 1 1 2 2 2 2 2 2 1 1 1 2 1 1 2 2 2 2 2
2 2 2 2 2 2 2 2 2 2 2 1 1 1 2 2 2 2 2 1 0 1 1 1 2 2 2 2 2 2 2 2 2 1 1 1 1 1 2 2 2 2 2
2 2 2 2 2 2 2 2 2 2 2 1 1 1 0 1 1 1 1 1 1 1 1 2 2 2 2 2 2 2 2 2 2 1 1 1 1 1 2 2 2 2 2
2 3 4 2 2 2 2 2 2 2 2 1 1 0 0 1 1 1 1 1 1 1 1 2 2 2 2 2 2 2 2 2 2 1 1 1 1 1 1 2 2 2 2
2 2 2 2 2 2 2 2 2 2 2 2 1 1 3 2 2 2 2 1 1 1 1 1 2 2 2 2 2 2 2 2 2 2 2 1 1 1 1 1 2 2 2
2 2 2 2 2 2 2 1 1 1 2 2 2 2 2 2 2 2 1 1 1 1 1 1 1 1 2 2 2 2 2 2 2 2 2 2 1 1 2 2 2 2 2
2 2 2 2 2 2 2 1 1 1 1 2 2 2 2 2 2 2 2 1 1 1 1 1 1 2 2 2 2 2 2 3 3 2 2 2 2 2 2 2 2 2 2
2 2 2 2 2 2 1 1 1 1 1 2 2 2 2 2 2 2 1 1 1 1 1 1 1 2 2 2 2 2 2 2 3 3 2 2 2 2 2 2 2 2 2
2 2 2 2 2 2 1 1 1 1 1 1 2 2 2 2 2 2 2 1 1 1 1 1 1 1 1 1 2 1 1 2 2 3 3 2 2 2 2 2 2 2 2
Wind_Direction
203 204 203 205 206 205 210 213 215 217 216 216 222 225 227 230 228 224 237 242 245 242 243 255 263 271 262 254 254 256 257 262 266 275 276 260 253 260 259 278 268 254 226
205 205 206 204 204 209 213 217 218 217 220 222 223 228 231 236 234 231 234 239 243 249 250 256 265 265 265 263 256 254 256 258 260 267 265 256 260 265 270 269 257 245 254
202 203 206 207 209 213 217 220 222 221 222 223 225 232 234 238 239 240 239 243 247 252 252 252 258 257 256 259 258 259 260 257 259 258 263 265 261 255 263 270 259 255 252
195 201 208 213 213 216 218 220 223 225 224 227 230 232 233 237 240 241 241 245 249 252 250 251 254 253 256 259 257 259 260 254 248 249 253 256 257 255 257 257 260 255 256
196 204 212 216 215 218 220 222 224 226 228 229 233 235 235 237 240 239 241 245 246 251 253 254 255 262 276 270 262 257 256 253 247 249 253 255 252 249 249 251 260 265 259
201 208 211 215 215 218 220 220 221 225 228 231 235 236 235 236 228 233 247 247 247 250 253 253 252 247 251 253 261 266 262 251 251 249 253 255 256 252 252 253 254 258 263
207 209 209 212 214 218 217 217 222 225 227 231 236 238 238 235 219 222 235 248 250 252 255 254 252 252 244 246 237 238 250 261 268 265 262 262 262 258 248 249 253 257 268
211 210 213 215 216 217 215 219 226 229 230 235 237 240 243 241 227 226 231 243 249 249 250 254 253 251 248 256 255 248 246 243 246 254 263 268 268 267 253 252 259 260 266
214 214 215 217 218 220 221 222 228 232 234 236 238 240 242 240 224 226 233 243 247 246 245 249 255 253 259 263 257 257 260 259 242 255 272 283 299 291 272 249 246 245 255
216 215 214 214 215 220 227 228 228 228 232 236 239 241 243 247 223 222 238 242 245 244 243 244 254 263 254 244 252 259 264 267 259 243 245 249 252 241 233 240 239 244 259
212 208 209 208 214 217 223 228 227 225 226 231 237 243 244 246 220 210 232 245 248 245 241 243 244 223 237 246 262 264 274 279 265 260 255 248 244 243 234 236 240 242 249
203 203 206 208 207 208 209 222 227 222 225 229 236 243 249 241 243 225 226 251 269 245 245 249 249 195 219 240 253 283 290 275 263 260 257 252 244 240 239 239 240 244 250
204 206 209 211 209 211 207 208 221 221 225 232 238 244 250 261 250 219 229 248 267 251 251 285 317 240 231 236 251 275 264 257 257 257 258 260 258 248 238 237 244 244 252
204 209 212 210 206 201 202 204 212 220 225 227 236 247 250 248 262 253 243 244 245 257 267 218 159 173 231 276 271 248 257 264 263 260 262 266 264 238 232 234 235 234 244
200 204 209 209 204 194 181 189 220 212 233 238 233 233 240 251 297 333 287 259 264 281 284 276 275 250 261 265 270 279 280 273 270 275 266 260 255 245 245 242 242 239 246
199 202 206 206 195 187 181 165 94 74 88 344 286 263 273 320 28 37 16 54 74 90 228 217 280 286 291 288 280 278 280 281 282 280 271 265 260 253 250 243 232 233 242
203 205 203 201 191 187 186 187 177 138 127 124 89 240 223 171 98 120 127 116 111 144 202 233 273 293 295 294 292 287 283 293 293 285 284 278 264 253 241 227 222 229 244
200 203 202 195 195 191 191 195 197 196 187 166 132 119 142 159 163 159 155 147 138 173 251 266 271 283 290 291 291 292 296 302 295 293 297 299 281 255 241 234 225 232 241
194 196 188 190 191 188 189 196 198 200 197 194 175 139 141 173 171 159 168 192 205 240 268 284 281 281 287 289 295 295 289 288 297 292 289 300 294 275 263 256 247 225 239
183 165 190 193 185 180 185 195 198 198 204 206 216 233 192 178 189 168 185 227 238 243 255 266 274 287 290 293 295 296 293 294 294 294 304 297 291 286 273 261 257 246 241
179 171 179 194 193 187 192 198 200 200 204 214 224 159 305 227 224 222 218 228 240 254 263 268 272 281 288 289 284 282 286 288 292 299 304 308 306 291 282 277 271 265 255
187 186 184 188 190 187 196 206 202 201 205 213 222 178 173 212 222 221 225 227 227 248 259 256 262 274 280 279 278 283 280 279 287 295 294 284 273 276 270 261 264 259 245
183 180 176 173 176 162 183 202 213 215 218 227 230 226 208 215 222 229 236 244 251 249 244 247 259 274 288 289 288 286 279 284 289 286 278 280 279 275 275 267 257 256 255
171 171 169 165 170 185 197 207 218 226 233 237 241 240 233 228 229 231 235 243 252 256 257 256 260 265 276 293 292 294 304 313 306 288 277 269 267 270 270 266 262 255 256
164 168 173 176 183 192 202 214 229 236 239 248 255 256 249 238 233 232 237 237 232 243 268 280 276 270 271 279 288 297 337 338 316 303 288 278 268 268 266 265 260 258 259
166 170 175 176 184 193 201 214 227 248 255 262 265 267 262 255 246 242 242 240 240 243 252 266 270 279 287 291 319 329 317 304 296 290 281 269 259 258 256 254 257 256 253
Height
1515 1517 1518 1519 1520 1521 1522 1522 1523 1523 1523 1523 1523 1523 1523 1523 1524 1523 1523 1523 1523 1523 1523 1523 1523 1523 1523 1523 1522 1522 1522 1522 1521 1521 1520 1519 1519 1519 1518 1518 1518 1517 1517
1512 1513 1515 1516 1517 1518 1519 1519 1520 1520 1520 1521 1521 1521 1521 1521 1521 1521 1521 1520 1521 1521 1520 1520 1520 1520 1520 1520 1520 1520 1519 1519 1519 1518 1517 1517 1516 1516 1516 1515 1515 1515 1515
1508 1510 1511 1512 1513 1514 1515 1516 1516 1517 1517 1517 1518 1518 1518 1518 1518 1518 1518 1518 1518 1518 1517 1517 1517 1517 1517 1517 1516 1516 1516 1516 1515 1515 1514 1514 1513 1513 1513 1513 1513 1513 1513
1505 1507 1508 1509 1510 1511 1511 1512 1513 1513 1514 1514 1514 1514 1515 1515 1515 1514 1515 1515 1515 1514 1514 1514 1513 1513 1513 1513 1513 1513 1513 1512 1512 1512 1512 1511 1511 1510 1510 1510 1510 1510 1510
1502 1503 1504 1506 1506 1507 1508 1508 1509 1509 1510 1510 1510 1511 1511 1511 1511 1511 1511 1511 1511 1511 1510 1510 1510 1509 1509 1509 1509 1509 1509 1509 1509 1509 1509 1508 1508 1507 1507 1507 1507 1507 1507
1499 1500 1501 1502 1502 1503 1504 1504 1505 1505 1505 1506 1506 1506 1507 1507 1507 1507 1507 1507 1507 1507 1507 1506 1506 1505 1504 1504 1504 1504 1505 1505 1505 1505 1505 1505 1505 1505 1504 1504 1504 1504 1504
1496 1497 1498 1499 1499 1499 1500 1500 1501 1501 1501 1502 1502 1502 1502 1502 1502 1502 1503 1503 1503 1503 1503 1503 1502 1501 1501 1501 1500 1501 1501 1501 1501 1502 1502 1501 1501 1501 1501 1501 1501 1501 1501
1493 1494 1494 1495 1496 1496 1496 1496 1497 1497 1497 1497 1497 1498 1498 1498 1498 1498 1498 1499 1499 1499 1499 1498 1498 1498 1497 1497 1497 1497 1497 1497 1497 1497 1497 1497 1498 1498 1498 1498 1498 1498 1498
1489 1490 1491 1491 1492 1492 1492 1492 1493 1493 1493 1493 1493 1493 1493 1493 1493 1493 1494 1494 1495 1495 1494 1494 1494 1494 1493 1493 1494 1494 1494 1493 1493 1492 1492 1493 1493 1493 1494 1494 1494 1494 1494
1485 1486 1487 1488 1488 1488 1489 1489 1489 1489 1489 1489 1489 1489 1489 1489 1489 1489 1489 1490 1490 1490 1490 1490 1489 1490 1489 1489 1490 1490 1489 1489 1489 1488 1488 1488 1489 1489 1490 1490 1491 1491 1491
1482 1483 1484 1485 1485 1485 1485 1485 1485 1485 1485 1485 1485 1485 1485 1485 1484 1484 1485 1485 1485 1486 1486 1486 1486 1485 1485 1485 1485 1485 1485 1485 1485 1485 1484 1484 1484 1484 1485 1485 1486 1487 1487
1479 1479 1480 1481 1482 1482 1482 1482 1482 1482 1482 1481 1481 1481 1481 1480 1480 1480 1480 1480 1481 1481 1482 1482 1482 1482 1481 1481 1481 1481 1481 1481 1481 1481 1480 1480 1480 1480 1480 1481 1481 1482 1483
1475 1476 1477 1478 1478 1478 1478 1478 1478 1478 1478 1478 1478 1478 1477 1477 1476 1476 1476 1476 1476 1477 1478 1478 1478 1478 1478 1478 1477 1477 1477 1477 1477 1477 1476 1476 1475 1475 1476 1477 1477 1478 1478
1472 1473 1474 1474 1475 1475 1475 1475 1475 1475 1475 1475 1475 1474 1474 1474 1473 1473 1473 1473 1473 1473 1474 1474 1474 1474 1473 1473 1473 1473 1473 1473 1473 1473 1473 1472 1472 1472 1472 1473 1473 1474 1474
1469 1470 1470 1471 1471 1472 1472 1472 1472 1472 1472 1472 1471 1471 1471 1471 1471 1470 1470 1470 1470 1470 1470 1470 1470 1470 1470 1470 1470 1470 1470 1470 1470 1470 1469 1469 1469 1469 1469 1470 1470 1470 1471
1466 1467 1467 1468 1468 1468 1469 1469 1469 1469 1469 1469 1469 1469 1468 1468 1468 1468 1468 1467 1467 1467 1468 1467 1467 1467 1467 1467 1467 1467 1467 1467 1467 1467 1467 1467 1467 1467 1467 1467 1467 1467 1468
1464 1464 1464 1465 1465 1465 1466 1466 1466 1466 1466 1466 1466 1466 1466 1466 1466 1466 1465 1465 1465 1465 1465 1465 1465 1465 1465 1465 1465 1464 1464 1464 1464 1464 1464 1464 1464 1464 1464 1464 1464 1465 1465
1461 1461 1461 1462 1462 1463 1463 1464 1464 1464 1464 1464 1464 1464 1463 1463 1463 1464 1464 1463 1463 1463 1463 1463 1463 1463 1463 1463 1462 1462 1462 1461 1461 1461 1461 1462 1462 1462 1461 1462 1462 1462 1462
1458 1459 1459 1459 1460 1460 1461 1461 1462 1462 1462 1462 1461 1461 1461 1461 1461 1461 1461 1461 1461 1461 1461 1461 1461 1461 1461 1461 1460 1460 1460 1459 1459 1459 1458 1459 1459 1459 1459 1459 1460 1460 1460
1456 1456 1457 1457 1457 1458 1458 1459 1459 1459 1459 1460 1460 1460 1459 1459 1459 1459 1459 1459 1459 1459 1459 1459 1459 1459 1458 1458 1458 1458 1457 1457 1457 1456 1456 1456 1456 1456 1456 1457 1457 1458 1458
1453 1454 1454 1455 1455 1455 1455 1456 1456 1457 1457 1457 1457 1458 1457 1457 1457 1457 1457 1457 1457 1457 1457 1457 1457 1457 1456 1456 1456 1455 1455 1454 1454 1454 1454 1454 1454 1454 1454 1454 1455 1455 1456
1451 1452 1452 1453 1453 1453 1453 1454 1454 1454 1455 1455 1455 1456 1455 1455 1455 1455 1455 1455 1455 1455 1455 1455 1454 1454 1454 1454 1453 1453 1453 1452 1452 1452 1452 1451 1451 1451 1452 1452 1452 1453 1453
1449 1450 1450 1450 1451 1451 1451 1452 1452 1452 1452 1453 1453 1453 1453 1453 1453 1453 1453 1453 1453 1453 1453 1452 1452 1452 1452 1451 1451 1451 1451 1450 1450 1450 1450 1450 1450 1450 1450 1450 1450 1450 1451
1448 1448 1448 1449 1449 1449 1450 1450 1450 1450 1450 1451 1451 1451 1451 1451 1451 1451 1451 1451 1451 1450 1450 1450 1450 1450 1450 1449 1449 1448 1448 1448 1448 1448 1448 1447 1447 1447 1447 1447 1448 1448 1448
1446 1446 1447 1447 1448 1448 1448 1448 1448 1448 1448 1448 1448 1448 1448 1448 1449 1448 1448 1448 1448 1448 1447 1447 1447 1447 1447 1447 1446 1446 1445 1445 1445 1445 1445 1445 1445 1445 1445 1445 1445 1445 1446
1444 1445 1445 1445 1446 1446 1446 1446 1446 1446 1446 1446 1446 1446 1446 1446 1446 1446 1446 1445 1445 1445 1445 1445 1445 1445 1444 1444 1444 1444 1443 1443 1442 1442 1442 1442 1442 1442 1442 1443 1443 1443 1443